Regional Weather Roundup
Issued by NWS Green Bay, WI

Home | Current Version | Previous Version | Text Only | Print | Product List | Glossary On
Versions: 1 2 3 4 5 6 7 8 9 10 11 12 13 14 15 16 17 18 19 20 21 22 23 24 25 26 27 28 29 30 31 32 33 34 35 36 37 38 39 40 41 42 43 44 45 46 47 48 49 50
000
ASUS43 KGRB 042318
RWRGRB

NORTH-CENTRAL AND NORTHEAST WISCONSIN REGIONAL WEATHER ROUNDUP
NATIONAL WEATHER SERVICE GREEN BAY WI
500 PM CST WED MAR 04 2015

WIZ005-009-010>012-018-019-050000-
NORTH CENTRAL WISCONSIN

CITY           SKY/WX    TMP DP  RH WIND       PRES   REMARKS
IRONWOOD       MOCLDY     1  -8  66 W16G22    30.13R WCI -18
MANITOWISH WTR CLOUDY     1  -8  66 NW12G20   30.09R HAZE    WCI -16
ARBOR VITAE    PTCLDY     4 -10  51 NW14      30.09R WCI -13
EAGLE RIVER    LGT SNOW   2  -7  65 NW13      30.07R WCI -15
LAND O LAKES   CLOUDY     4  -7  60 NW9G16    30.07R WCI -11
RHINELANDER    CLOUDY     4 -11  50 NW12G24   30.08R WCI -12
PHILLIPS       MOCLDY     4 -11  50 W5        30.12R WCI  -6
ANTIGO         PTCLDY     6 -11  45 W18G24    30.07R WCI -13
TOMAHAWK       PTCLDY     6 -11  46 NW14G21   30.11R WCI -12
MERRILL        PTCLDY     8 -11  40 NW9G18    30.11R WCI  -5
$$

WIZ013-073-050000-
NORTHEAST WISCONSIN

CITY           SKY/WX    TMP DP  RH WIND       PRES   REMARKS
IRON MOUNTAIN  CLOUDY     7  -9  48 NW15      30.07R WCI -10
MARINETTE      CLEAR     12 -11  34 NW10      30.13R WCI  -1
OCONTO         PTCLDY    13 -11  34 W12G17    30.14R WCI  -1
$$

WIZ017-030-035>037-045-050000-
CENTRAL WISCONSIN

CITY           SKY/WX    TMP DP  RH WIND       PRES   REMARKS
MEDFORD        CLEAR      6 -11  44 NW15G21   30.11R WCI -11
WAUSAU         CLEAR      8 -11  41 NW21G26   30.11R WCI -12
MOSINEE        PTCLDY     9  -9  43 W18G24    30.14R WCI -10
MARSHFIELD     PTCLDY     8  -9  45 NW14      30.15R WCI  -8
WISC RAPIDS    CLEAR     11  -9  40 NW14      30.17R WCI  -5
STEVENS POINT  CLEAR      8 -11  41 W12G18    30.16R WCI  -7
WAUPACA        CLEAR     14 -10  33 NW14G20   30.17R WCI  -1
SHAWANO        CLEAR     14 -12  30 W12G18    30.14R WCI   1
CLINTONVILLE   CLEAR     12 -11  34 W16       30.16R WCI  -4
$$

WIZ038-039-048-051-050000-
FOX VALLEY

CITY           SKY/WX    TMP DP  RH WIND       PRES   REMARKS
NWS GREEN BAY  CLEAR     12  -7  42 W14       30.15R WCI  -3
APPLETON       PTCLDY    12 -11  34 W18G28    30.15R WCI  -5
OSHKOSH        CLEAR     14  -6  40 NW10      30.15R WCI   1
FOND DU LAC    CLEAR     15  -6  39 NW17      30.16R WCI  -1
$$

WIZ022-050-052-050000-
EAST CENTRAL WISCONSIN

CITY           SKY/WX    TMP DP  RH WIND       PRES   REMARKS
STURGEON BAY   CLEAR     10  -8  44 NW8       30.14R WCI  -1
MANITOWOC      CLEAR     13  -8  39 NW24G31   30.15R WCI  -7
SHEBOYGAN      CLEAR     14  -5  42 NW14      30.15R WCI  -1
$$

LMZ563-521-522-541>543-050000-
LAKESHORE

STATION/POSITION TIME  TEMP    WIND        PRES    VSBY  WAVE
                       AIR SEA DIR/SP/G                  HT/PER
                 (UTC) (F)     (DEG/KT/KT) (MB)    (MI)  (FT/S)
SHEBOYGAN LKSHOR 2200   15     300/ 15/ 20 1022.6R
KEWAUNEE LKSHORE 2300   13     280/ 14/ 20 1019.8R
NORTHPORT PIER   2300   13     300/  9/ 16 1019.3R
SISTER BAY LKSHO 2300   14     320/ 17/ 20   N/A
CHAMBERS ISLAND  2300   12     300/  7/ 13 1019.6R
MENOMINEE LKSHOR 2300   13     270/  9     1020.8R
$$



USA.gov is the U.S. government's official web portal to all federal, state and local government web resources and services.